Location: Baix
(44.7118°N, 4.7648°E)
Time: 11:24:50
(UTC+00:00)

Tiros 1 despin weight - Pass Details

Date: 26 November 2020
Orbit: 594 x 641 km, 48.2° (Epoch: 17 January)

Event Time Altitude Azimuth Distance (km) Brightness Sun altitude
Rises 17:06:59 0° 290° (WNW) 2,942 ? -11.0°
Reaches altitude 10° 17:09:20 10° 291° (WNW) 2,029 ? -11.4°
Maximum altitude 17:14:01 83° 19° (NNE) 644 ? -12.2°
Enters shadow 17:18:03 14° 108° (ESE) 1,771 ? -12.9°
